GFSNW_prec_pwat_108.txt.gz
Precipitable_Water
0.58 0.54 0.53 0.52 0.53 0.52 0.45 0.37 0.24 0.48 0.54 0.27 0.32 0.26 0.30 0.35 0.33 0.39 0.35 0.34 0.32 0.31 0.33 0.31 0.31 0.29 0.33 0.41 0.40 0.30 0.34 0.26 0.17 0.20 0.32 0.36 0.31 0.25 0.25 0.16 0.16 0.21 0.19 0.16
0.67 0.58 0.53 0.49 0.50 0.51 0.37 0.30 0.32 0.47 0.46 0.21 0.25 0.32 0.32 0.36 0.33 0.34 0.33 0.32 0.36 0.36 0.30 0.25 0.29 0.30 0.38 0.39 0.34 0.29 0.31 0.21 0.12 0.11 0.20 0.27 0.22 0.24 0.25 0.23 0.23 0.16 0.15 0.16
0.63 0.63 0.59 0.48 0.47 0.52 0.39 0.28 0.21 0.32 0.37 0.36 0.28 0.26 0.27 0.27 0.38 0.34 0.36 0.33 0.35 0.31 0.28 0.31 0.25 0.25 0.31 0.35 0.34 0.37 0.35 0.23 0.16 0.10 0.12 0.17 0.16 0.20 0.24 0.21 0.16 0.15 0.15 0.15
0.63 0.62 0.62 0.55 0.47 0.49 0.39 0.31 0.24 0.30 0.22 0.26 0.28 0.29 0.28 0.25 0.25 0.34 0.35 0.30 0.30 0.27 0.22 0.23 0.21 0.23 0.24 0.30 0.35 0.36 0.33 0.19 0.20 0.19 0.20 0.21 0.19 0.19 0.20 0.19 0.17 0.15 0.14 0.16
0.74 0.63 0.63 0.60 0.50 0.47 0.37 0.25 0.25 0.30 0.27 0.29 0.27 0.26 0.24 0.24 0.26 0.28 0.26 0.26 0.29 0.29 0.24 0.24 0.20 0.24 0.25 0.23 0.32 0.33 0.35 0.22 0.23 0.17 0.20 0.20 0.17 0.19 0.19 0.19 0.19 0.19 0.19 0.16
0.75 0.72 0.63 0.64 0.55 0.47 0.37 0.40 0.37 0.28 0.24 0.24 0.21 0.22 0.23 0.24 0.27 0.29 0.31 0.29 0.26 0.24 0.26 0.31 0.33 0.34 0.33 0.32 0.29 0.28 0.28 0.25 0.22 0.15 0.20 0.19 0.12 0.15 0.17 0.18 0.20 0.19 0.16 0.19
0.75 0.75 0.73 0.65 0.66 0.51 0.42 0.40 0.36 0.24 0.15 0.20 0.20 0.23 0.25 0.23 0.25 0.23 0.28 0.30 0.26 0.30 0.40 0.37 0.33 0.30 0.29 0.30 0.30 0.32 0.25 0.25 0.25 0.18 0.19 0.09 0.13 0.21 0.21 0.20 0.21 0.24 0.23 0.25
0.84 0.77 0.77 0.75 0.67 0.65 0.46 0.44 0.35 0.27 0.19 0.21 0.18 0.21 0.23 0.26 0.28 0.26 0.26 0.28 0.33 0.38 0.31 0.20 0.15 0.15 0.16 0.20 0.26 0.28 0.30 0.26 0.21 0.16 0.14 0.14 0.15 0.21 0.21 0.20 0.17 0.24 0.23 0.25
0.86 0.83 0.79 0.80 0.76 0.68 0.60 0.47 0.46 0.34 0.22 0.19 0.29 0.26 0.24 0.19 0.20 0.21 0.25 0.35 0.40 0.36 0.26 0.19 0.12 0.09 0.11 0.12 0.16 0.27 0.30 0.32 0.24 0.20 0.15 0.11 0.14 0.22 0.28 0.27 0.15 0.22 0.23 0.24
0.88 0.87 0.83 0.81 0.82 0.77 0.65 0.57 0.54 0.38 0.25 0.27 0.28 0.23 0.27 0.36 0.31 0.23 0.25 0.27 0.29 0.36 0.23 0.17 0.15 0.13 0.18 0.13 0.14 0.18 0.21 0.24 0.19 0.20 0.19 0.19 0.24 0.27 0.30 0.14 0.14 0.24 0.27 0.29
0.99 0.92 0.90 0.85 0.86 0.82 0.73 0.64 0.65 0.46 0.33 0.29 0.31 0.32 0.29 0.31 0.35 0.30 0.36 0.34 0.34 0.30 0.24 0.23 0.21 0.19 0.20 0.19 0.21 0.19 0.19 0.18 0.18 0.21 0.18 0.14 0.26 0.27 0.20 0.24 0.29 0.31 0.31 0.30
1.01 0.99 0.95 0.93 0.89 0.89 0.82 0.67 0.72 0.69 0.46 0.36 0.41 0.38 0.38 0.37 0.36 0.33 0.36 0.34 0.35 0.37 0.30 0.28 0.28 0.23 0.25 0.22 0.17 0.26 0.19 0.21 0.19 0.20 0.18 0.25 0.28 0.27 0.33 0.34 0.32 0.33 0.34 0.35
1.02 1.00 0.99 0.97 0.94 0.91 0.87 0.76 0.75 0.71 0.59 0.50 0.42 0.38 0.43 0.48 0.47 0.49 0.33 0.37 0.41 0.38 0.43 0.37 0.33 0.25 0.29 0.21 0.21 0.23 0.26 0.28 0.23 0.22 0.23 0.25 0.28 0.33 0.34 0.35 0.33 0.34 0.35 0.35
1.02 1.00 0.99 0.98 0.96 0.94 0.93 0.81 0.80 0.73 0.66 0.53 0.42 0.52 0.48 0.54 0.51 0.48 0.47 0.42 0.45 0.45 0.43 0.36 0.32 0.28 0.35 0.27 0.27 0.25 0.27 0.28 0.24 0.23 0.26 0.29 0.31 0.33 0.32 0.32 0.34 0.34 0.37 0.37
1.02 1.01 0.98 0.97 0.95 0.92 0.89 0.86 0.86 0.84 0.64 0.53 0.56 0.65 0.64 0.61 0.57 0.52 0.49 0.46 0.42 0.37 0.34 0.33 0.31 0.36 0.35 0.35 0.32 0.23 0.29 0.24 0.22 0.18 0.27 0.27 0.30 0.32 0.33 0.32 0.32 0.32 0.34 0.34
1.02 1.00 0.98 0.96 0.94 0.90 0.79 0.66 0.81 0.83 0.79 0.64 0.54 0.68 0.67 0.67 0.56 0.52 0.52 0.53 0.51 0.48 0.40 0.37 0.38 0.42 0.37 0.28 0.24 0.26 0.29 0.31 0.31 0.26 0.31 0.32 0.32 0.34 0.36 0.33 0.33 0.30 0.33 0.35
1.01 0.98 0.97 0.93 0.93 0.87 0.69 0.61 0.72 0.82 0.76 0.59 0.50 0.49 0.59 0.62 0.65 0.62 0.60 0.60 0.54 0.51 0.48 0.44 0.41 0.40 0.41 0.34 0.24 0.26 0.30 0.32 0.32 0.35 0.35 0.30 0.32 0.30 0.34 0.33 0.31 0.29 0.30 0.37
0.99 0.98 0.95 0.91 0.88 0.87 0.77 0.82 0.82 0.76 0.63 0.58 0.46 0.44 0.46 0.60 0.57 0.57 0.64 0.57 0.57 0.55 0.50 0.49 0.43 0.43 0.42 0.30 0.29 0.32 0.33 0.33 0.34 0.34 0.35 0.32 0.33 0.33 0.32 0.32 0.27 0.25 0.28 0.33
0.98 0.96 0.92 0.85 0.77 0.69 0.70 0.82 0.82 0.75 0.60 0.46 0.46 0.41 0.38 0.54 0.50 0.53 0.56 0.59 0.50 0.54 0.49 0.48 0.47 0.43 0.36 0.31 0.32 0.33 0.34 0.33 0.33 0.32 0.31 0.30 0.29 0.29 0.28 0.29 0.29 0.28 0.32 0.33
0.91 0.85 0.72 0.60 0.71 0.82 0.80 0.69 0.58 0.57 0.57 0.54 0.45 0.49 0.40 0.47 0.46 0.44 0.46 0.50 0.48 0.43 0.47 0.54 0.45 0.43 0.43 0.41 0.39 0.39 0.39 0.38 0.37 0.30 0.27 0.27 0.26 0.28 0.30 0.32 0.34 0.34 0.35 0.35
0.72 0.67 0.62 0.73 0.83 0.70 0.62 0.51 0.46 0.47 0.41 0.46 0.48 0.48 0.43 0.51 0.41 0.41 0.46 0.42 0.43 0.35 0.41 0.45 0.40 0.43 0.41 0.42 0.40 0.41 0.40 0.40 0.38 0.36 0.33 0.32 0.33 0.32 0.33 0.34 0.35 0.37 0.37 0.37
0.62 0.67 0.73 0.70 0.61 0.55 0.48 0.42 0.43 0.40 0.37 0.44 0.44 0.46 0.48 0.48 0.51 0.43 0.43 0.38 0.39 0.31 0.42 0.36 0.34 0.40 0.41 0.42 0.39 0.38 0.39 0.37 0.35 0.35 0.32 0.35 0.36 0.37 0.36 0.36 0.36 0.38 0.40 0.39
0.59 0.54 0.50 0.50 0.48 0.38 0.34 0.30 0.32 0.34 0.43 0.45 0.46 0.43 0.46 0.47 0.48 0.43 0.40 0.34 0.33 0.40 0.32 0.28 0.36 0.38 0.37 0.41 0.41 0.37 0.36 0.37 0.38 0.36 0.35 0.35 0.37 0.38 0.36 0.36 0.39 0.40 0.39 0.39
0.38 0.37 0.31 0.36 0.36 0.35 0.35 0.34 0.36 0.41 0.44 0.45 0.46 0.44 0.43 0.46 0.42 0.43 0.35 0.38 0.37 0.29 0.26 0.29 0.35 0.34 0.35 0.39 0.38 0.36 0.35 0.36 0.36 0.35 0.34 0.34 0.34 0.35 0.36 0.38 0.40 0.40 0.39 0.38
0.36 0.33 0.27 0.25 0.28 0.35 0.39 0.44 0.44 0.47 0.48 0.47 0.46 0.45 0.45 0.42 0.41 0.40 0.37 0.32 0.28 0.27 0.27 0.31 0.33 0.35 0.38 0.39 0.38 0.35 0.34 0.34 0.35 0.36 0.35 0.34 0.34 0.34 0.35 0.38 0.40 0.40 0.39 0.36
0.34 0.33 0.23 0.27 0.25 0.24 0.32 0.39 0.43 0.49 0.48 0.48 0.47 0.42 0.38 0.37 0.38 0.34 0.31 0.28 0.25 0.29 0.36 0.36 0.38 0.35 0.37 0.38 0.37 0.34 0.34 0.35 0.36 0.37 0.37 0.35 0.34 0.33 0.34 0.36 0.37 0.38 0.38 0.36
0.32 0.24 0.25 0.21 0.23 0.23 0.25 0.28 0.34 0.44 0.44 0.39 0.43 0.35 0.35 0.40 0.34 0.32 0.35 0.30 0.34 0.37 0.37 0.41 0.41 0.40 0.41 0.40 0.38 0.38 0.40 0.42 0.42 0.40 0.38 0.38 0.37 0.37 0.39 0.35 0.35 0.37 0.38 0.38

GFSNW_prec_pwat_114.txt.gz
Precipitable_Water
0.59 0.67 0.48 0.48 0.50 0.51 0.49 0.43 0.27 0.47 0.57 0.30 0.30 0.23 0.26 0.30 0.29 0.34 0.31 0.32 0.29 0.28 0.28 0.26 0.25 0.24 0.28 0.34 0.33 0.26 0.29 0.23 0.14 0.17 0.28 0.32 0.30 0.25 0.24 0.16 0.12 0.19 0.17 0.14
0.61 0.59 0.64 0.47 0.46 0.48 0.42 0.31 0.32 0.51 0.53 0.22 0.24 0.31 0.30 0.33 0.31 0.32 0.31 0.30 0.32 0.32 0.27 0.22 0.25 0.25 0.32 0.32 0.29 0.25 0.28 0.20 0.11 0.16 0.21 0.27 0.22 0.22 0.24 0.23 0.23 0.14 0.13 0.10
0.67 0.63 0.62 0.60 0.48 0.45 0.42 0.32 0.22 0.33 0.37 0.36 0.27 0.25 0.26 0.26 0.35 0.33 0.34 0.31 0.32 0.28 0.25 0.27 0.24 0.23 0.29 0.30 0.30 0.33 0.31 0.21 0.16 0.10 0.13 0.21 0.18 0.20 0.23 0.23 0.17 0.15 0.14 0.14
0.70 0.67 0.63 0.62 0.58 0.51 0.44 0.33 0.23 0.30 0.23 0.24 0.26 0.28 0.26 0.23 0.23 0.31 0.32 0.27 0.27 0.26 0.21 0.22 0.21 0.23 0.24 0.29 0.32 0.31 0.29 0.18 0.20 0.20 0.21 0.21 0.19 0.18 0.19 0.19 0.20 0.18 0.14 0.17
0.78 0.69 0.68 0.67 0.61 0.64 0.38 0.27 0.28 0.30 0.26 0.27 0.27 0.25 0.23 0.22 0.24 0.25 0.24 0.23 0.26 0.26 0.22 0.23 0.21 0.23 0.23 0.22 0.30 0.28 0.32 0.18 0.22 0.17 0.18 0.19 0.17 0.17 0.19 0.19 0.19 0.21 0.21 0.17
0.85 0.75 0.71 0.72 0.68 0.66 0.50 0.41 0.38 0.30 0.26 0.23 0.21 0.24 0.25 0.24 0.27 0.28 0.30 0.27 0.25 0.22 0.25 0.29 0.29 0.29 0.28 0.28 0.25 0.26 0.27 0.23 0.20 0.14 0.21 0.20 0.13 0.15 0.16 0.18 0.20 0.19 0.15 0.17
0.93 0.86 0.74 0.73 0.75 0.73 0.65 0.54 0.41 0.27 0.20 0.21 0.22 0.23 0.23 0.23 0.25 0.23 0.28 0.29 0.26 0.30 0.37 0.32 0.28 0.26 0.25 0.25 0.25 0.30 0.25 0.26 0.25 0.18 0.20 0.11 0.18 0.21 0.20 0.18 0.20 0.21 0.20 0.22
0.95 0.95 0.90 0.76 0.77 0.78 0.71 0.67 0.56 0.39 0.22 0.22 0.19 0.22 0.24 0.25 0.26 0.23 0.24 0.28 0.33 0.37 0.29 0.20 0.16 0.16 0.19 0.21 0.27 0.28 0.31 0.27 0.23 0.19 0.19 0.19 0.18 0.20 0.18 0.16 0.15 0.19 0.20 0.21
0.95 0.94 0.93 0.89 0.84 0.80 0.79 0.75 0.73 0.61 0.42 0.31 0.27 0.22 0.23 0.21 0.24 0.28 0.32 0.37 0.38 0.34 0.26 0.23 0.16 0.14 0.16 0.16 0.21 0.31 0.31 0.33 0.26 0.23 0.18 0.12 0.18 0.23 0.26 0.25 0.13 0.22 0.23 0.23
0.99 0.96 0.93 0.93 0.90 0.82 0.81 0.78 0.80 0.69 0.57 0.53 0.45 0.32 0.26 0.29 0.25 0.23 0.28 0.32 0.36 0.41 0.29 0.23 0.20 0.19 0.22 0.17 0.17 0.20 0.23 0.26 0.22 0.22 0.21 0.21 0.25 0.28 0.30 0.16 0.14 0.26 0.25 0.26
1.02 1.00 0.96 0.95 0.93 0.88 0.80 0.78 0.83 0.73 0.64 0.64 0.62 0.55 0.47 0.39 0.35 0.26 0.36 0.32 0.34 0.34 0.26 0.24 0.23 0.21 0.21 0.20 0.21 0.22 0.21 0.20 0.21 0.25 0.22 0.16 0.31 0.29 0.21 0.22 0.25 0.27 0.28 0.29
1.02 1.01 1.00 0.98 0.96 0.93 0.86 0.73 0.81 0.80 0.70 0.69 0.74 0.72 0.71 0.60 0.54 0.42 0.43 0.43 0.44 0.43 0.35 0.33 0.31 0.26 0.26 0.22 0.17 0.24 0.19 0.24 0.22 0.24 0.20 0.29 0.33 0.29 0.32 0.31 0.29 0.30 0.32 0.33
1.01 1.02 1.01 1.00 0.97 0.96 0.89 0.78 0.78 0.74 0.65 0.67 0.67 0.55 0.69 0.72 0.64 0.59 0.49 0.55 0.57 0.52 0.56 0.47 0.43 0.36 0.39 0.30 0.25 0.27 0.29 0.30 0.25 0.25 0.25 0.28 0.32 0.35 0.35 0.36 0.34 0.34 0.35 0.35
0.98 1.00 1.01 1.00 0.98 0.97 0.94 0.81 0.82 0.73 0.63 0.50 0.53 0.69 0.65 0.72 0.71 0.70 0.72 0.69 0.68 0.62 0.61 0.49 0.45 0.42 0.47 0.42 0.41 0.37 0.36 0.34 0.30 0.30 0.30 0.32 0.31 0.32 0.33 0.34 0.37 0.37 0.38 0.36
0.96 0.98 1.00 0.99 0.97 0.96 0.93 0.89 0.84 0.78 0.60 0.47 0.51 0.62 0.65 0.66 0.65 0.62 0.64 0.66 0.63 0.60 0.51 0.45 0.45 0.53 0.50 0.48 0.47 0.44 0.47 0.38 0.33 0.29 0.32 0.33 0.33 0.36 0.38 0.35 0.36 0.38 0.37 0.37
0.91 0.95 0.97 0.99 0.96 0.93 0.84 0.65 0.74 0.79 0.76 0.57 0.45 0.59 0.56 0.58 0.58 0.50 0.51 0.54 0.55 0.53 0.50 0.50 0.52 0.59 0.51 0.41 0.39 0.49 0.48 0.48 0.43 0.36 0.39 0.40 0.40 0.40 0.41 0.38 0.39 0.40 0.39 0.39
0.86 0.91 0.92 0.96 0.96 0.88 0.72 0.65 0.72 0.80 0.77 0.56 0.46 0.46 0.55 0.55 0.55 0.55 0.54 0.56 0.54 0.52 0.48 0.46 0.46 0.48 0.49 0.42 0.35 0.44 0.46 0.46 0.45 0.44 0.42 0.38 0.38 0.38 0.41 0.43 0.42 0.42 0.40 0.38
0.84 0.85 0.86 0.90 0.95 0.89 0.75 0.83 0.85 0.80 0.66 0.58 0.44 0.44 0.46 0.56 0.48 0.45 0.54 0.48 0.50 0.49 0.46 0.47 0.44 0.46 0.46 0.35 0.40 0.45 0.48 0.47 0.48 0.44 0.44 0.41 0.44 0.43 0.42 0.43 0.39 0.36 0.35 0.36
0.67 0.72 0.77 0.78 0.75 0.68 0.72 0.83 0.82 0.77 0.63 0.48 0.44 0.39 0.38 0.54 0.48 0.49 0.49 0.50 0.40 0.48 0.40 0.40 0.42 0.37 0.34 0.38 0.40 0.41 0.43 0.42 0.44 0.48 0.46 0.42 0.41 0.41 0.39 0.37 0.36 0.33 0.33 0.36
0.61 0.59 0.52 0.49 0.62 0.77 0.75 0.66 0.57 0.55 0.56 0.52 0.41 0.49 0.41 0.48 0.46 0.44 0.44 0.45 0.39 0.34 0.38 0.43 0.36 0.31 0.41 0.42 0.42 0.42 0.40 0.40 0.41 0.39 0.38 0.39 0.38 0.35 0.33 0.33 0.34 0.35 0.38 0.39
0.49 0.44 0.42 0.55 0.67 0.57 0.53 0.44 0.42 0.44 0.39 0.45 0.45 0.45 0.42 0.53 0.42 0.42 0.47 0.42 0.41 0.31 0.35 0.35 0.31 0.29 0.38 0.42 0.41 0.41 0.40 0.40 0.41 0.40 0.41 0.41 0.40 0.36 0.34 0.32 0.37 0.40 0.41 0.40
0.51 0.52 0.56 0.53 0.44 0.38 0.34 0.35 0.40 0.38 0.35 0.43 0.41 0.44 0.48 0.50 0.53 0.45 0.46 0.39 0.40 0.31 0.42 0.33 0.26 0.34 0.40 0.40 0.38 0.38 0.37 0.36 0.36 0.38 0.39 0.40 0.41 0.41 0.36 0.37 0.38 0.40 0.42 0.43
0.50 0.41 0.34 0.35 0.32 0.22 0.25 0.23 0.28 0.29 0.36 0.39 0.38 0.35 0.40 0.42 0.42 0.39 0.39 0.32 0.31 0.39 0.31 0.27 0.29 0.35 0.35 0.34 0.31 0.33 0.35 0.35 0.38 0.41 0.44 0.44 0.42 0.40 0.37 0.37 0.39 0.41 0.41 0.43
0.32 0.29 0.22 0.22 0.20 0.24 0.21 0.19 0.21 0.29 0.33 0.34 0.34 0.34 0.35 0.39 0.35 0.37 0.31 0.35 0.35 0.28 0.25 0.25 0.34 0.39 0.40 0.41 0.38 0.35 0.33 0.32 0.34 0.37 0.38 0.38 0.37 0.35 0.36 0.37 0.41 0.44 0.41 0.41
0.30 0.29 0.17 0.16 0.20 0.24 0.24 0.29 0.28 0.31 0.36 0.34 0.35 0.34 0.31 0.30 0.29 0.31 0.31 0.28 0.25 0.26 0.24 0.30 0.37 0.41 0.42 0.41 0.42 0.41 0.41 0.43 0.41 0.42 0.41 0.39 0.35 0.36 0.39 0.42 0.45 0.47 0.47 0.44
0.34 0.29 0.20 0.22 0.20 0.19 0.22 0.23 0.23 0.29 0.30 0.32 0.31 0.26 0.23 0.21 0.25 0.22 0.19 0.20 0.17 0.19 0.26 0.33 0.33 0.37 0.42 0.38 0.41 0.42 0.43 0.44 0.46 0.48 0.48 0.43 0.35 0.35 0.39 0.41 0.42 0.43 0.45 0.45
0.28 0.22 0.25 0.21 0.19 0.19 0.23 0.26 0.25 0.32 0.29 0.24 0.28 0.22 0.20 0.28 0.23 0.20 0.25 0.21 0.23 0.26 0.28 0.29 0.31 0.35 0.32 0.34 0.37 0.39 0.44 0.44 0.45 0.46 0.46 0.49 0.43 0.36 0.36 0.35 0.38 0.42 0.44 0.45

GFSNW_prec_pwat_120.txt.gz
Precipitable_Water
0.63 0.59 0.61 0.52 0.50 0.51 0.50 0.42 0.21 0.52 0.54 0.20 0.24 0.19 0.24 0.30 0.29 0.36 0.34 0.34 0.29 0.26 0.27 0.24 0.23 0.21 0.26 0.31 0.29 0.21 0.26 0.21 0.12 0.14 0.24 0.29 0.26 0.23 0.23 0.14 0.10 0.15 0.13 0.09
0.71 0.65 0.63 0.62 0.55 0.47 0.41 0.29 0.32 0.54 0.48 0.15 0.19 0.27 0.27 0.30 0.30 0.31 0.31 0.29 0.31 0.31 0.26 0.19 0.23 0.24 0.31 0.31 0.27 0.24 0.28 0.17 0.10 0.12 0.21 0.28 0.23 0.24 0.25 0.24 0.22 0.15 0.12 0.10
0.74 0.71 0.67 0.65 0.65 0.57 0.44 0.29 0.17 0.31 0.35 0.33 0.25 0.23 0.24 0.24 0.34 0.31 0.33 0.30 0.30 0.26 0.23 0.26 0.21 0.21 0.27 0.30 0.28 0.32 0.30 0.19 0.13 0.07 0.09 0.17 0.16 0.18 0.22 0.22 0.17 0.14 0.14 0.14
0.77 0.74 0.72 0.72 0.70 0.66 0.50 0.29 0.22 0.29 0.18 0.22 0.25 0.26 0.25 0.22 0.22 0.31 0.32 0.27 0.27 0.25 0.20 0.22 0.20 0.23 0.26 0.30 0.32 0.31 0.27 0.15 0.17 0.17 0.18 0.19 0.17 0.17 0.18 0.18 0.18 0.15 0.12 0.14
0.78 0.78 0.76 0.74 0.71 0.72 0.50 0.37 0.26 0.28 0.24 0.26 0.23 0.22 0.21 0.21 0.24 0.25 0.23 0.23 0.27 0.27 0.21 0.22 0.20 0.24 0.24 0.22 0.31 0.29 0.33 0.19 0.22 0.18 0.20 0.21 0.18 0.20 0.20 0.20 0.20 0.20 0.19 0.16
0.78 0.79 0.78 0.77 0.76 0.69 0.55 0.57 0.54 0.36 0.25 0.21 0.18 0.20 0.22 0.22 0.24 0.25 0.27 0.26 0.24 0.21 0.24 0.29 0.30 0.30 0.29 0.29 0.27 0.27 0.28 0.25 0.21 0.14 0.21 0.20 0.13 0.15 0.17 0.19 0.21 0.20 0.15 0.17
0.78 0.80 0.80 0.77 0.79 0.77 0.66 0.66 0.62 0.45 0.32 0.25 0.20 0.21 0.23 0.22 0.23 0.21 0.26 0.27 0.23 0.27 0.35 0.32 0.28 0.25 0.24 0.26 0.27 0.33 0.27 0.27 0.26 0.19 0.20 0.11 0.16 0.24 0.23 0.20 0.21 0.23 0.22 0.22
0.78 0.78 0.82 0.80 0.80 0.82 0.71 0.72 0.66 0.57 0.45 0.49 0.35 0.26 0.22 0.24 0.25 0.23 0.23 0.27 0.32 0.38 0.32 0.21 0.17 0.18 0.23 0.26 0.30 0.30 0.32 0.29 0.24 0.19 0.18 0.18 0.19 0.22 0.21 0.20 0.18 0.23 0.22 0.22
0.77 0.77 0.79 0.85 0.81 0.82 0.76 0.72 0.74 0.66 0.56 0.51 0.53 0.50 0.45 0.36 0.29 0.25 0.27 0.36 0.42 0.38 0.27 0.23 0.16 0.14 0.16 0.16 0.21 0.31 0.32 0.32 0.25 0.23 0.18 0.13 0.18 0.25 0.30 0.29 0.18 0.24 0.25 0.24
0.77 0.78 0.78 0.80 0.83 0.84 0.79 0.73 0.76 0.65 0.54 0.60 0.61 0.55 0.52 0.56 0.46 0.42 0.41 0.43 0.38 0.45 0.34 0.27 0.24 0.21 0.24 0.19 0.18 0.21 0.26 0.30 0.25 0.25 0.22 0.22 0.26 0.31 0.34 0.20 0.20 0.28 0.29 0.29
0.76 0.79 0.80 0.81 0.81 0.84 0.82 0.78 0.80 0.69 0.57 0.59 0.64 0.64 0.61 0.59 0.58 0.51 0.54 0.48 0.48 0.44 0.37 0.39 0.40 0.39 0.38 0.36 0.35 0.31 0.31 0.32 0.34 0.38 0.33 0.26 0.41 0.41 0.30 0.31 0.33 0.32 0.33 0.34
0.78 0.80 0.82 0.82 0.82 0.81 0.82 0.70 0.83 0.81 0.64 0.59 0.68 0.68 0.69 0.64 0.62 0.56 0.57 0.49 0.49 0.49 0.38 0.41 0.45 0.43 0.44 0.40 0.34 0.44 0.33 0.37 0.35 0.37 0.35 0.42 0.44 0.43 0.44 0.43 0.39 0.35 0.35 0.38
0.83 0.83 0.83 0.84 0.84 0.84 0.82 0.74 0.77 0.73 0.62 0.59 0.60 0.58 0.63 0.68 0.67 0.68 0.50 0.53 0.54 0.52 0.56 0.47 0.44 0.38 0.45 0.37 0.37 0.37 0.40 0.42 0.35 0.36 0.41 0.40 0.44 0.46 0.45 0.43 0.41 0.38 0.38 0.39
0.88 0.88 0.87 0.88 0.87 0.87 0.87 0.76 0.79 0.74 0.63 0.49 0.53 0.68 0.59 0.68 0.70 0.65 0.63 0.59 0.61 0.60 0.57 0.48 0.43 0.38 0.45 0.38 0.39 0.37 0.38 0.38 0.34 0.33 0.38 0.40 0.43 0.44 0.43 0.42 0.42 0.40 0.39 0.38
0.90 0.89 0.87 0.86 0.89 0.93 0.90 0.85 0.82 0.79 0.59 0.47 0.52 0.63 0.66 0.67 0.65 0.62 0.63 0.60 0.56 0.52 0.47 0.45 0.42 0.46 0.43 0.43 0.42 0.36 0.42 0.38 0.34 0.32 0.39 0.39 0.40 0.45 0.46 0.43 0.42 0.41 0.38 0.37
0.87 0.84 0.80 0.82 0.86 0.90 0.82 0.64 0.73 0.76 0.75 0.58 0.47 0.62 0.58 0.60 0.60 0.57 0.57 0.57 0.56 0.54 0.49 0.46 0.47 0.52 0.45 0.36 0.33 0.41 0.43 0.45 0.45 0.40 0.44 0.43 0.45 0.46 0.46 0.44 0.45 0.46 0.46 0.45
0.80 0.80 0.81 0.81 0.83 0.81 0.68 0.64 0.69 0.77 0.76 0.57 0.47 0.46 0.57 0.59 0.58 0.56 0.55 0.57 0.53 0.51 0.48 0.45 0.45 0.47 0.48 0.40 0.32 0.40 0.43 0.45 0.46 0.46 0.43 0.38 0.40 0.38 0.42 0.42 0.44 0.45 0.47 0.47
0.69 0.72 0.73 0.72 0.75 0.75 0.64 0.75 0.81 0.79 0.64 0.59 0.45 0.42 0.45 0.54 0.45 0.43 0.53 0.48 0.51 0.49 0.47 0.48 0.43 0.45 0.45 0.34 0.40 0.43 0.43 0.42 0.40 0.40 0.42 0.40 0.41 0.41 0.40 0.42 0.43 0.41 0.41 0.44
0.61 0.65 0.62 0.59 0.55 0.49 0.53 0.69 0.71 0.70 0.60 0.46 0.44 0.36 0.33 0.50 0.44 0.45 0.46 0.48 0.40 0.49 0.43 0.43 0.45 0.41 0.36 0.39 0.40 0.40 0.39 0.38 0.37 0.38 0.38 0.38 0.38 0.37 0.38 0.41 0.42 0.41 0.40 0.41
0.58 0.54 0.43 0.37 0.50 0.65 0.64 0.53 0.47 0.48 0.50 0.48 0.36 0.40 0.33 0.42 0.42 0.41 0.41 0.44 0.38 0.34 0.40 0.47 0.39 0.37 0.43 0.43 0.41 0.40 0.40 0.41 0.39 0.34 0.30 0.30 0.31 0.34 0.35 0.37 0.40 0.38 0.38 0.36
0.48 0.39 0.35 0.49 0.61 0.50 0.41 0.33 0.33 0.36 0.32 0.38 0.38 0.42 0.37 0.49 0.38 0.40 0.46 0.38 0.39 0.31 0.35 0.36 0.34 0.33 0.35 0.37 0.40 0.42 0.42 0.41 0.40 0.41 0.41 0.40 0.38 0.35 0.34 0.36 0.36 0.38 0.36 0.32
0.49 0.47 0.52 0.49 0.38 0.33 0.27 0.28 0.32 0.28 0.25 0.34 0.34 0.37 0.42 0.45 0.48 0.39 0.39 0.33 0.34 0.26 0.38 0.31 0.26 0.27 0.33 0.37 0.35 0.37 0.35 0.37 0.38 0.40 0.42 0.44 0.43 0.42 0.43 0.47 0.45 0.41 0.39 0.40
0.49 0.40 0.34 0.28 0.26 0.21 0.20 0.17 0.22 0.23 0.29 0.34 0.36 0.32 0.35 0.36 0.37 0.34 0.32 0.25 0.24 0.33 0.26 0.23 0.20 0.24 0.34 0.36 0.38 0.40 0.41 0.40 0.33 0.29 0.32 0.35 0.39 0.44 0.45 0.42 0.44 0.50 0.48 0.42
0.30 0.25 0.18 0.18 0.17 0.19 0.19 0.19 0.22 0.28 0.30 0.31 0.34 0.30 0.30 0.33 0.29 0.30 0.25 0.29 0.30 0.22 0.18 0.15 0.14 0.24 0.28 0.36 0.41 0.42 0.38 0.34 0.30 0.28 0.27 0.26 0.31 0.33 0.36 0.40 0.41 0.40 0.41 0.46
0.28 0.25 0.16 0.16 0.21 0.23 0.25 0.27 0.27 0.31 0.34 0.32 0.30 0.30 0.32 0.31 0.29 0.28 0.25 0.20 0.15 0.16 0.12 0.14 0.22 0.30 0.31 0.30 0.28 0.26 0.26 0.26 0.22 0.24 0.25 0.23 0.25 0.26 0.29 0.34 0.34 0.34 0.34 0.38
0.32 0.28 0.20 0.22 0.20 0.18 0.21 0.22 0.24 0.33 0.34 0.34 0.33 0.26 0.23 0.20 0.21 0.18 0.15 0.13 0.10 0.10 0.14 0.20 0.24 0.23 0.21 0.22 0.20 0.24 0.25 0.22 0.18 0.21 0.22 0.24 0.26 0.27 0.28 0.31 0.32 0.32 0.31 0.31
0.28 0.23 0.26 0.23 0.21 0.19 0.20 0.23 0.26 0.34 0.29 0.24 0.27 0.21 0.20 0.24 0.19 0.17 0.20 0.14 0.14 0.18 0.22 0.24 0.24 0.21 0.20 0.20 0.22 0.22 0.21 0.16 0.20 0.24 0.25 0.26 0.26 0.26 0.26 0.26 0.30 0.33 0.34 0.33

GFSNW_prec_pwat_123.txt.gz
Precipitable_Water
0.73 0.69 0.66 0.58 0.49 0.50 0.50 0.42 0.22 0.52 0.55 0.21 0.23 0.19 0.24 0.30 0.28 0.36 0.32 0.31 0.27 0.25 0.27 0.24 0.23 0.21 0.25 0.32 0.28 0.20 0.25 0.19 0.11 0.13 0.24 0.27 0.25 0.20 0.21 0.13 0.10 0.15 0.13 0.09
0.73 0.71 0.75 0.71 0.64 0.48 0.41 0.29 0.31 0.53 0.44 0.14 0.18 0.26 0.26 0.29 0.29 0.30 0.29 0.27 0.30 0.30 0.24 0.18 0.22 0.23 0.31 0.31 0.26 0.23 0.26 0.16 0.08 0.09 0.18 0.25 0.21 0.22 0.23 0.22 0.20 0.14 0.11 0.08
0.76 0.73 0.73 0.74 0.74 0.67 0.49 0.28 0.16 0.29 0.32 0.31 0.24 0.22 0.23 0.23 0.33 0.30 0.31 0.28 0.29 0.25 0.22 0.25 0.20 0.21 0.27 0.30 0.28 0.31 0.29 0.18 0.12 0.07 0.08 0.15 0.15 0.18 0.22 0.22 0.17 0.15 0.13 0.12
0.76 0.76 0.70 0.75 0.75 0.74 0.56 0.37 0.22 0.28 0.17 0.22 0.25 0.25 0.24 0.20 0.20 0.30 0.30 0.25 0.24 0.22 0.18 0.20 0.19 0.22 0.26 0.30 0.32 0.30 0.26 0.15 0.17 0.17 0.18 0.19 0.18 0.18 0.19 0.19 0.20 0.16 0.12 0.15
0.73 0.74 0.73 0.71 0.72 0.74 0.54 0.42 0.37 0.31 0.24 0.26 0.23 0.23 0.21 0.19 0.23 0.23 0.21 0.21 0.24 0.25 0.19 0.20 0.17 0.22 0.23 0.21 0.30 0.29 0.32 0.18 0.22 0.17 0.20 0.22 0.19 0.21 0.21 0.21 0.22 0.22 0.21 0.18
0.72 0.72 0.73 0.71 0.70 0.70 0.57 0.59 0.59 0.46 0.35 0.23 0.17 0.19 0.23 0.23 0.25 0.25 0.27 0.26 0.24 0.21 0.23 0.28 0.29 0.30 0.29 0.28 0.25 0.26 0.27 0.25 0.21 0.14 0.21 0.20 0.14 0.16 0.19 0.20 0.23 0.22 0.17 0.19
0.72 0.72 0.72 0.72 0.73 0.69 0.68 0.68 0.63 0.49 0.41 0.40 0.29 0.26 0.23 0.21 0.23 0.22 0.27 0.29 0.25 0.27 0.35 0.32 0.28 0.26 0.26 0.27 0.28 0.33 0.27 0.27 0.25 0.18 0.19 0.10 0.16 0.23 0.23 0.21 0.22 0.25 0.25 0.24
0.71 0.69 0.72 0.73 0.73 0.73 0.65 0.71 0.64 0.54 0.47 0.49 0.43 0.42 0.34 0.26 0.26 0.26 0.23 0.27 0.31 0.37 0.32 0.23 0.18 0.17 0.21 0.24 0.28 0.29 0.33 0.28 0.21 0.17 0.16 0.16 0.16 0.20 0.21 0.21 0.19 0.25 0.25 0.27
0.71 0.71 0.71 0.74 0.75 0.73 0.69 0.68 0.73 0.62 0.49 0.48 0.52 0.52 0.52 0.45 0.41 0.35 0.33 0.41 0.44 0.38 0.28 0.22 0.15 0.13 0.16 0.16 0.21 0.32 0.32 0.34 0.27 0.26 0.21 0.18 0.23 0.29 0.37 0.39 0.25 0.28 0.30 0.31
0.70 0.73 0.73 0.73 0.75 0.75 0.68 0.66 0.74 0.65 0.52 0.56 0.53 0.51 0.51 0.57 0.52 0.47 0.52 0.53 0.50 0.51 0.34 0.29 0.29 0.28 0.33 0.26 0.25 0.30 0.33 0.35 0.31 0.33 0.32 0.36 0.40 0.39 0.46 0.31 0.30 0.37 0.39 0.37
0.73 0.74 0.76 0.76 0.75 0.75 0.71 0.66 0.74 0.65 0.57 0.60 0.63 0.60 0.54 0.57 0.57 0.48 0.52 0.51 0.51 0.47 0.38 0.36 0.35 0.37 0.40 0.40 0.41 0.40 0.36 0.35 0.34 0.36 0.33 0.29 0.43 0.41 0.33 0.37 0.42 0.43 0.42 0.41
0.79 0.79 0.79 0.81 0.79 0.77 0.73 0.60 0.72 0.73 0.59 0.56 0.67 0.67 0.68 0.63 0.60 0.55 0.53 0.48 0.52 0.53 0.44 0.43 0.43 0.37 0.40 0.39 0.34 0.45 0.36 0.38 0.32 0.34 0.34 0.41 0.42 0.42 0.44 0.45 0.43 0.44 0.42 0.41
0.82 0.82 0.82 0.84 0.86 0.83 0.80 0.70 0.72 0.68 0.55 0.54 0.55 0.56 0.66 0.70 0.70 0.70 0.50 0.53 0.54 0.53 0.58 0.49 0.45 0.37 0.42 0.34 0.36 0.39 0.43 0.43 0.36 0.34 0.38 0.39 0.41 0.44 0.45 0.46 0.45 0.45 0.45 0.44
0.87 0.87 0.85 0.85 0.88 0.88 0.85 0.76 0.78 0.70 0.60 0.44 0.49 0.64 0.60 0.68 0.67 0.66 0.66 0.61 0.63 0.61 0.58 0.48 0.43 0.39 0.45 0.38 0.38 0.36 0.40 0.40 0.36 0.35 0.38 0.39 0.42 0.45 0.45 0.45 0.46 0.45 0.46 0.46
0.91 0.90 0.86 0.84 0.85 0.86 0.85 0.82 0.79 0.77 0.61 0.44 0.47 0.58 0.62 0.65 0.65 0.64 0.65 0.63 0.59 0.54 0.48 0.45 0.42 0.48 0.45 0.45 0.42 0.37 0.42 0.37 0.33 0.31 0.40 0.41 0.42 0.46 0.46 0.43 0.42 0.42 0.40 0.42
0.90 0.87 0.85 0.83 0.83 0.83 0.74 0.59 0.72 0.76 0.75 0.57 0.44 0.58 0.53 0.57 0.58 0.58 0.58 0.59 0.59 0.57 0.51 0.48 0.49 0.53 0.46 0.37 0.33 0.41 0.44 0.45 0.45 0.40 0.45 0.45 0.42 0.40 0.40 0.39 0.41 0.42 0.42 0.44
0.85 0.83 0.83 0.82 0.82 0.79 0.64 0.60 0.70 0.76 0.73 0.56 0.46 0.44 0.56 0.59 0.58 0.56 0.56 0.59 0.57 0.55 0.51 0.47 0.47 0.47 0.48 0.41 0.33 0.41 0.44 0.46 0.46 0.45 0.41 0.34 0.35 0.35 0.41 0.42 0.43 0.45 0.45 0.46
0.75 0.78 0.75 0.74 0.75 0.72 0.61 0.68 0.73 0.74 0.60 0.56 0.43 0.40 0.44 0.52 0.45 0.44 0.52 0.47 0.50 0.49 0.48 0.50 0.46 0.47 0.47 0.37 0.42 0.44 0.44 0.43 0.40 0.40 0.42 0.41 0.43 0.43 0.42 0.42 0.42 0.40 0.39 0.40
0.68 0.69 0.65 0.60 0.55 0.48 0.51 0.64 0.65 0.64 0.55 0.42 0.41 0.34 0.30 0.47 0.42 0.44 0.45 0.48 0.39 0.48 0.42 0.43 0.46 0.41 0.35 0.41 0.44 0.42 0.43 0.43 0.43 0.44 0.44 0.43 0.42 0.43 0.42 0.40 0.39 0.35 0.35 0.36
0.65 0.58 0.45 0.38 0.50 0.63 0.60 0.53 0.44 0.44 0.46 0.46 0.35 0.38 0.32 0.38 0.37 0.36 0.36 0.40 0.35 0.31 0.36 0.44 0.35 0.32 0.38 0.41 0.42 0.39 0.37 0.37 0.36 0.32 0.33 0.36 0.38 0.39 0.40 0.41 0.43 0.43 0.42 0.39
0.48 0.40 0.37 0.50 0.62 0.51 0.43 0.34 0.33 0.37 0.32 0.37 0.36 0.36 0.32 0.43 0.32 0.33 0.40 0.34 0.33 0.24 0.27 0.27 0.26 0.24 0.27 0.29 0.30 0.34 0.36 0.36 0.36 0.36 0.33 0.33 0.32 0.32 0.35 0.35 0.38 0.41 0.43 0.44
0.49 0.48 0.53 0.50 0.39 0.35 0.30 0.30 0.33 0.29 0.25 0.33 0.31 0.37 0.41 0.42 0.46 0.39 0.39 0.29 0.28 0.19 0.31 0.25 0.20 0.19 0.27 0.29 0.33 0.37 0.38 0.38 0.38 0.37 0.34 0.34 0.35 0.34 0.31 0.29 0.31 0.33 0.36 0.38
0.49 0.40 0.35 0.31 0.30 0.23 0.22 0.19 0.23 0.24 0.31 0.37 0.37 0.33 0.37 0.38 0.36 0.31 0.29 0.23 0.21 0.30 0.22 0.18 0.18 0.20 0.27 0.32 0.33 0.36 0.37 0.35 0.33 0.32 0.31 0.29 0.30 0.32 0.31 0.28 0.27 0.28 0.29 0.30
0.32 0.27 0.20 0.20 0.18 0.20 0.21 0.21 0.23 0.30 0.34 0.34 0.36 0.33 0.31 0.33 0.28 0.28 0.21 0.25 0.27 0.20 0.17 0.15 0.18 0.25 0.26 0.27 0.31 0.31 0.29 0.30 0.28 0.27 0.27 0.26 0.24 0.22 0.24 0.23 0.25 0.25 0.24 0.27
0.28 0.26 0.16 0.17 0.21 0.23 0.25 0.27 0.28 0.32 0.36 0.35 0.33 0.32 0.31 0.26 0.24 0.25 0.25 0.22 0.18 0.19 0.15 0.17 0.23 0.27 0.28 0.28 0.28 0.28 0.28 0.26 0.22 0.17 0.15 0.16 0.17 0.16 0.18 0.21 0.23 0.25 0.25 0.25
0.33 0.29 0.21 0.23 0.20 0.19 0.21 0.23 0.26 0.34 0.34 0.35 0.34 0.27 0.24 0.22 0.23 0.21 0.20 0.18 0.14 0.13 0.16 0.20 0.23 0.23 0.24 0.24 0.25 0.23 0.21 0.18 0.16 0.17 0.18 0.17 0.16 0.17 0.18 0.22 0.24 0.28 0.29 0.29
0.30 0.25 0.29 0.26 0.23 0.21 0.21 0.23 0.24 0.32 0.30 0.23 0.25 0.19 0.17 0.22 0.19 0.17 0.19 0.14 0.14 0.19 0.21 0.23 0.21 0.21 0.22 0.22 0.18 0.16 0.16 0.16 0.17 0.17 0.18 0.19 0.20 0.20 0.21 0.20 0.23 0.30 0.33 0.35

GFSNW_prec_pwat_126.txt.gz
Precipitable_Water
0.75 0.76 0.74 0.72 0.53 0.49 0.49 0.42 0.23 0.53 0.56 0.21 0.24 0.20 0.25 0.30 0.28 0.34 0.29 0.27 0.22 0.21 0.23 0.21 0.22 0.20 0.26 0.33 0.30 0.21 0.26 0.20 0.11 0.16 0.25 0.28 0.25 0.20 0.19 0.11 0.09 0.14 0.12 0.08
0.71 0.73 0.77 0.75 0.72 0.56 0.41 0.29 0.32 0.53 0.46 0.14 0.19 0.27 0.27 0.30 0.30 0.31 0.29 0.27 0.29 0.30 0.25 0.19 0.23 0.24 0.31 0.31 0.26 0.21 0.23 0.14 0.07 0.09 0.17 0.24 0.19 0.21 0.22 0.21 0.19 0.13 0.11 0.09
0.73 0.70 0.71 0.73 0.76 0.71 0.58 0.31 0.17 0.29 0.32 0.29 0.22 0.22 0.23 0.23 0.33 0.30 0.31 0.28 0.29 0.25 0.22 0.25 0.19 0.20 0.27 0.30 0.27 0.30 0.27 0.16 0.10 0.06 0.08 0.14 0.14 0.17 0.21 0.21 0.16 0.15 0.14 0.12
0.70 0.70 0.68 0.68 0.73 0.77 0.59 0.42 0.32 0.29 0.17 0.21 0.23 0.24 0.22 0.19 0.18 0.28 0.29 0.24 0.24 0.21 0.17 0.19 0.18 0.22 0.25 0.28 0.30 0.28 0.25 0.13 0.16 0.16 0.17 0.18 0.17 0.17 0.20 0.20 0.20 0.16 0.13 0.15
0.70 0.69 0.68 0.66 0.67 0.70 0.57 0.44 0.41 0.42 0.33 0.26 0.21 0.21 0.19 0.18 0.21 0.22 0.19 0.19 0.22 0.23 0.18 0.19 0.16 0.21 0.22 0.20 0.29 0.27 0.30 0.18 0.21 0.16 0.20 0.21 0.19 0.21 0.22 0.22 0.22 0.22 0.22 0.20
0.69 0.67 0.67 0.66 0.63 0.64 0.56 0.61 0.61 0.50 0.42 0.36 0.27 0.21 0.20 0.19 0.23 0.24 0.26 0.25 0.23 0.21 0.22 0.27 0.29 0.30 0.29 0.27 0.25 0.25 0.26 0.23 0.20 0.14 0.21 0.19 0.14 0.16 0.19 0.21 0.24 0.23 0.18 0.21
0.67 0.67 0.66 0.66 0.64 0.61 0.61 0.62 0.61 0.48 0.42 0.44 0.40 0.39 0.33 0.28 0.25 0.19 0.24 0.26 0.22 0.24 0.33 0.31 0.28 0.26 0.26 0.28 0.29 0.33 0.26 0.26 0.24 0.17 0.18 0.10 0.15 0.23 0.23 0.21 0.25 0.28 0.28 0.28
0.64 0.66 0.66 0.67 0.66 0.63 0.59 0.63 0.57 0.51 0.44 0.47 0.44 0.47 0.46 0.43 0.39 0.38 0.37 0.33 0.32 0.35 0.28 0.20 0.16 0.15 0.19 0.23 0.26 0.27 0.31 0.27 0.20 0.16 0.17 0.20 0.17 0.22 0.24 0.24 0.30 0.32 0.31 0.33
0.64 0.67 0.68 0.68 0.68 0.65 0.60 0.61 0.64 0.53 0.44 0.45 0.49 0.47 0.51 0.46 0.47 0.44 0.41 0.50 0.55 0.50 0.37 0.25 0.17 0.15 0.18 0.18 0.24 0.31 0.34 0.35 0.27 0.25 0.20 0.19 0.27 0.38 0.40 0.38 0.31 0.38 0.40 0.41
0.67 0.68 0.70 0.69 0.69 0.68 0.62 0.59 0.64 0.53 0.43 0.50 0.52 0.47 0.46 0.50 0.50 0.48 0.51 0.55 0.55 0.57 0.42 0.33 0.28 0.25 0.34 0.29 0.30 0.34 0.38 0.40 0.36 0.36 0.32 0.33 0.42 0.43 0.47 0.31 0.31 0.40 0.41 0.43
0.72 0.71 0.73 0.75 0.73 0.71 0.65 0.60 0.68 0.56 0.46 0.50 0.57 0.57 0.53 0.53 0.51 0.45 0.49 0.49 0.51 0.47 0.39 0.37 0.35 0.34 0.37 0.35 0.36 0.37 0.36 0.37 0.37 0.39 0.34 0.30 0.46 0.45 0.36 0.39 0.43 0.43 0.43 0.45
0.79 0.78 0.77 0.79 0.80 0.78 0.74 0.59 0.69 0.69 0.53 0.50 0.61 0.60 0.63 0.62 0.63 0.55 0.54 0.47 0.47 0.49 0.41 0.41 0.42 0.39 0.41 0.40 0.34 0.42 0.35 0.39 0.36 0.38 0.35 0.43 0.45 0.42 0.45 0.46 0.43 0.44 0.44 0.45
0.81 0.81 0.82 0.83 0.84 0.83 0.80 0.72 0.71 0.65 0.54 0.51 0.52 0.49 0.60 0.68 0.67 0.68 0.50 0.52 0.56 0.55 0.58 0.47 0.43 0.38 0.44 0.35 0.36 0.37 0.41 0.43 0.35 0.35 0.38 0.40 0.42 0.43 0.45 0.46 0.44 0.46 0.46 0.45
0.84 0.84 0.84 0.86 0.85 0.86 0.84 0.74 0.77 0.69 0.57 0.43 0.47 0.62 0.54 0.62 0.63 0.64 0.65 0.60 0.62 0.61 0.60 0.51 0.45 0.40 0.47 0.39 0.41 0.39 0.43 0.43 0.38 0.36 0.38 0.40 0.41 0.43 0.45 0.43 0.43 0.43 0.44 0.44
0.89 0.89 0.87 0.86 0.87 0.86 0.83 0.78 0.76 0.74 0.58 0.44 0.47 0.59 0.61 0.63 0.62 0.60 0.60 0.58 0.56 0.55 0.50 0.48 0.45 0.49 0.48 0.48 0.46 0.40 0.45 0.41 0.36 0.34 0.41 0.41 0.42 0.42 0.39 0.39 0.39 0.41 0.41 0.42
0.87 0.87 0.87 0.87 0.87 0.84 0.75 0.60 0.73 0.77 0.72 0.54 0.40 0.56 0.54 0.58 0.59 0.57 0.56 0.57 0.55 0.53 0.49 0.47 0.50 0.55 0.50 0.41 0.38 0.43 0.46 0.48 0.47 0.42 0.48 0.42 0.39 0.42 0.44 0.42 0.43 0.45 0.46 0.45
0.89 0.87 0.88 0.86 0.84 0.78 0.62 0.56 0.67 0.74 0.70 0.54 0.41 0.42 0.53 0.56 0.56 0.54 0.53 0.57 0.56 0.54 0.51 0.48 0.49 0.50 0.52 0.44 0.38 0.44 0.48 0.50 0.50 0.47 0.44 0.43 0.46 0.45 0.49 0.50 0.50 0.49 0.46 0.45
0.82 0.82 0.81 0.78 0.78 0.76 0.64 0.69 0.72 0.71 0.59 0.53 0.37 0.38 0.42 0.50 0.42 0.40 0.49 0.45 0.47 0.46 0.45 0.47 0.44 0.47 0.47 0.36 0.40 0.45 0.47 0.45 0.42 0.42 0.44 0.41 0.41 0.41 0.40 0.41 0.41 0.41 0.41 0.42
0.76 0.76 0.72 0.66 0.59 0.53 0.56 0.69 0.67 0.65 0.52 0.39 0.40 0.34 0.29 0.46 0.41 0.42 0.41 0.42 0.33 0.43 0.37 0.37 0.40 0.36 0.30 0.34 0.37 0.36 0.35 0.32 0.31 0.33 0.33 0.35 0.34 0.34 0.35 0.36 0.33 0.31 0.29 0.32
0.73 0.66 0.52 0.43 0.54 0.67 0.63 0.54 0.46 0.46 0.49 0.47 0.35 0.42 0.33 0.39 0.38 0.36 0.34 0.37 0.33 0.28 0.33 0.40 0.32 0.28 0.31 0.34 0.38 0.36 0.33 0.33 0.34 0.31 0.30 0.31 0.30 0.30 0.29 0.29 0.32 0.32 0.31 0.31
0.55 0.46 0.41 0.53 0.63 0.51 0.43 0.34 0.33 0.38 0.34 0.40 0.40 0.39 0.34 0.43 0.32 0.31 0.36 0.33 0.34 0.25 0.30 0.29 0.27 0.22 0.26 0.30 0.32 0.35 0.34 0.32 0.32 0.33 0.33 0.32 0.30 0.26 0.24 0.22 0.22 0.24 0.26 0.28
0.51 0.49 0.54 0.49 0.39 0.35 0.29 0.29 0.33 0.31 0.27 0.34 0.32 0.35 0.39 0.43 0.46 0.38 0.38 0.32 0.31 0.22 0.32 0.24 0.18 0.23 0.29 0.29 0.31 0.34 0.36 0.33 0.31 0.32 0.31 0.30 0.29 0.28 0.26 0.22 0.20 0.19 0.21 0.24
0.51 0.40 0.35 0.31 0.30 0.24 0.21 0.20 0.24 0.25 0.30 0.34 0.36 0.35 0.41 0.42 0.41 0.35 0.31 0.23 0.20 0.28 0.21 0.18 0.19 0.23 0.27 0.30 0.32 0.32 0.32 0.32 0.30 0.28 0.28 0.27 0.26 0.27 0.25 0.21 0.19 0.18 0.17 0.18
0.32 0.27 0.21 0.22 0.21 0.21 0.23 0.22 0.23 0.30 0.34 0.36 0.39 0.36 0.35 0.37 0.31 0.30 0.22 0.24 0.25 0.19 0.16 0.14 0.20 0.26 0.29 0.30 0.30 0.30 0.27 0.27 0.25 0.24 0.23 0.22 0.21 0.21 0.23 0.23 0.22 0.19 0.17 0.17
0.30 0.28 0.18 0.19 0.23 0.25 0.27 0.28 0.28 0.32 0.35 0.35 0.34 0.34 0.34 0.31 0.28 0.28 0.24 0.19 0.15 0.18 0.16 0.20 0.24 0.27 0.27 0.25 0.23 0.21 0.21 0.21 0.19 0.18 0.18 0.17 0.18 0.18 0.16 0.17 0.18 0.19 0.19 0.19
0.31 0.28 0.22 0.24 0.22 0.20 0.22 0.24 0.23 0.32 0.33 0.35 0.33 0.28 0.24 0.22 0.24 0.21 0.19 0.17 0.14 0.14 0.18 0.23 0.25 0.24 0.24 0.21 0.19 0.18 0.17 0.15 0.14 0.14 0.15 0.15 0.15 0.15 0.15 0.16 0.17 0.18 0.21 0.21
0.30 0.27 0.31 0.26 0.24 0.21 0.22 0.24 0.25 0.35 0.31 0.24 0.27 0.20 0.16 0.20 0.18 0.16 0.20 0.15 0.15 0.18 0.21 0.23 0.21 0.18 0.16 0.15 0.14 0.14 0.16 0.16 0.15 0.16 0.16 0.16 0.17 0.18 0.18 0.16 0.17 0.20 0.22 0.25

GFSNW_prec_pwat_129.txt.gz
Precipitable_Water
0.70 0.73 0.79 0.76 0.61 0.49 0.47 0.39 0.20 0.47 0.50 0.20 0.24 0.20 0.24 0.28 0.27 0.33 0.30 0.29 0.26 0.24 0.25 0.22 0.22 0.20 0.25 0.33 0.31 0.23 0.27 0.20 0.12 0.16 0.24 0.27 0.23 0.18 0.18 0.10 0.08 0.13 0.11 0.07
0.68 0.68 0.71 0.75 0.75 0.64 0.47 0.27 0.29 0.46 0.38 0.14 0.18 0.26 0.25 0.28 0.27 0.28 0.27 0.24 0.27 0.28 0.23 0.18 0.22 0.23 0.31 0.31 0.26 0.20 0.22 0.13 0.06 0.08 0.16 0.23 0.19 0.21 0.21 0.19 0.18 0.12 0.10 0.08
0.67 0.65 0.65 0.67 0.74 0.74 0.59 0.36 0.18 0.26 0.29 0.28 0.22 0.21 0.23 0.23 0.32 0.29 0.31 0.27 0.28 0.24 0.20 0.23 0.18 0.19 0.25 0.29 0.27 0.29 0.26 0.16 0.10 0.06 0.07 0.14 0.13 0.16 0.20 0.20 0.15 0.14 0.13 0.12
0.66 0.63 0.62 0.62 0.69 0.69 0.59 0.44 0.37 0.35 0.17 0.21 0.23 0.23 0.22 0.20 0.19 0.29 0.30 0.24 0.24 0.21 0.16 0.18 0.18 0.22 0.25 0.29 0.32 0.29 0.24 0.13 0.15 0.15 0.16 0.17 0.16 0.16 0.20 0.19 0.20 0.15 0.14 0.15
0.65 0.64 0.61 0.59 0.63 0.64 0.51 0.42 0.42 0.44 0.39 0.32 0.22 0.21 0.19 0.18 0.21 0.21 0.19 0.19 0.22 0.23 0.18 0.18 0.17 0.21 0.22 0.20 0.29 0.27 0.28 0.16 0.19 0.14 0.17 0.20 0.17 0.19 0.20 0.21 0.22 0.23 0.22 0.20
0.60 0.64 0.62 0.58 0.59 0.57 0.50 0.55 0.55 0.48 0.43 0.40 0.33 0.27 0.23 0.20 0.24 0.25 0.26 0.24 0.22 0.20 0.22 0.27 0.28 0.28 0.28 0.26 0.24 0.23 0.23 0.20 0.17 0.12 0.19 0.18 0.12 0.16 0.18 0.20 0.23 0.22 0.19 0.24
0.59 0.61 0.62 0.60 0.57 0.57 0.52 0.53 0.51 0.41 0.37 0.43 0.41 0.42 0.39 0.35 0.31 0.25 0.27 0.30 0.24 0.26 0.34 0.31 0.28 0.26 0.26 0.27 0.28 0.31 0.24 0.24 0.22 0.15 0.17 0.10 0.15 0.23 0.23 0.21 0.24 0.29 0.30 0.33
0.59 0.61 0.61 0.63 0.60 0.57 0.53 0.55 0.48 0.41 0.35 0.41 0.41 0.44 0.47 0.48 0.46 0.43 0.42 0.44 0.42 0.41 0.32 0.23 0.17 0.16 0.18 0.21 0.26 0.28 0.31 0.26 0.19 0.15 0.15 0.19 0.19 0.21 0.23 0.26 0.28 0.34 0.36 0.41
0.61 0.63 0.64 0.63 0.62 0.59 0.56 0.54 0.55 0.45 0.36 0.35 0.41 0.40 0.47 0.44 0.43 0.46 0.50 0.53 0.54 0.50 0.42 0.35 0.23 0.18 0.19 0.21 0.25 0.36 0.33 0.36 0.28 0.27 0.22 0.22 0.25 0.36 0.42 0.42 0.32 0.41 0.44 0.44
0.65 0.65 0.67 0.66 0.65 0.62 0.58 0.56 0.60 0.47 0.36 0.44 0.42 0.39 0.40 0.45 0.46 0.43 0.47 0.52 0.54 0.59 0.45 0.37 0.33 0.29 0.33 0.26 0.28 0.34 0.37 0.40 0.35 0.35 0.34 0.37 0.42 0.43 0.47 0.32 0.34 0.45 0.45 0.45
0.71 0.70 0.70 0.72 0.70 0.68 0.62 0.57 0.63 0.53 0.43 0.45 0.50 0.49 0.44 0.46 0.46 0.42 0.49 0.48 0.48 0.46 0.39 0.36 0.35 0.34 0.36 0.35 0.36 0.36 0.36 0.35 0.35 0.37 0.33 0.30 0.44 0.43 0.36 0.42 0.47 0.46 0.45 0.44
0.76 0.76 0.76 0.76 0.76 0.74 0.70 0.58 0.69 0.68 0.52 0.49 0.58 0.56 0.58 0.56 0.56 0.50 0.51 0.47 0.46 0.49 0.42 0.41 0.40 0.36 0.37 0.35 0.32 0.44 0.36 0.40 0.37 0.38 0.35 0.42 0.46 0.44 0.47 0.48 0.45 0.44 0.42 0.43
0.79 0.80 0.80 0.78 0.78 0.79 0.76 0.69 0.71 0.66 0.55 0.53 0.53 0.49 0.58 0.65 0.64 0.63 0.46 0.49 0.52 0.51 0.55 0.48 0.46 0.39 0.43 0.35 0.35 0.36 0.40 0.44 0.38 0.38 0.41 0.42 0.45 0.47 0.48 0.46 0.43 0.43 0.41 0.39
0.83 0.82 0.82 0.80 0.82 0.85 0.83 0.72 0.75 0.69 0.56 0.42 0.46 0.63 0.57 0.64 0.63 0.63 0.62 0.57 0.58 0.56 0.54 0.46 0.44 0.40 0.47 0.41 0.43 0.41 0.43 0.45 0.42 0.41 0.44 0.46 0.46 0.48 0.45 0.44 0.44 0.42 0.43 0.44
0.86 0.84 0.84 0.84 0.85 0.87 0.84 0.80 0.78 0.76 0.59 0.43 0.46 0.58 0.61 0.64 0.63 0.62 0.63 0.61 0.58 0.55 0.49 0.45 0.40 0.46 0.45 0.46 0.44 0.39 0.46 0.44 0.41 0.39 0.47 0.46 0.46 0.46 0.47 0.45 0.44 0.46 0.47 0.47
0.86 0.88 0.87 0.87 0.88 0.85 0.77 0.61 0.73 0.79 0.72 0.50 0.38 0.54 0.53 0.58 0.59 0.57 0.55 0.57 0.56 0.54 0.49 0.46 0.49 0.53 0.48 0.41 0.37 0.45 0.48 0.49 0.49 0.46 0.52 0.51 0.47 0.50 0.51 0.48 0.46 0.46 0.47 0.46
0.87 0.88 0.90 0.88 0.86 0.81 0.66 0.59 0.69 0.76 0.71 0.52 0.38 0.41 0.54 0.56 0.54 0.53 0.52 0.54 0.51 0.50 0.48 0.45 0.46 0.46 0.49 0.43 0.36 0.43 0.46 0.48 0.48 0.48 0.45 0.40 0.41 0.38 0.38 0.37 0.36 0.37 0.35 0.35
0.87 0.87 0.85 0.84 0.85 0.80 0.68 0.72 0.74 0.72 0.59 0.53 0.37 0.38 0.44 0.53 0.43 0.41 0.49 0.43 0.45 0.45 0.43 0.44 0.41 0.44 0.43 0.33 0.38 0.42 0.44 0.41 0.36 0.34 0.36 0.35 0.34 0.33 0.31 0.31 0.31 0.30 0.29 0.29
0.88 0.84 0.81 0.76 0.68 0.59 0.61 0.73 0.68 0.65 0.52 0.38 0.40 0.35 0.31 0.49 0.43 0.44 0.43 0.44 0.34 0.43 0.36 0.36 0.39 0.33 0.27 0.34 0.38 0.37 0.34 0.30 0.31 0.34 0.33 0.32 0.30 0.30 0.30 0.30 0.29 0.27 0.27 0.25
0.82 0.74 0.60 0.50 0.61 0.73 0.66 0.57 0.47 0.47 0.47 0.45 0.36 0.43 0.34 0.41 0.41 0.39 0.38 0.40 0.34 0.29 0.34 0.41 0.34 0.30 0.36 0.38 0.38 0.38 0.34 0.33 0.32 0.30 0.29 0.29 0.29 0.29 0.30 0.30 0.30 0.28 0.24 0.23
0.63 0.53 0.49 0.62 0.71 0.57 0.46 0.37 0.35 0.37 0.33 0.39 0.39 0.39 0.34 0.44 0.34 0.33 0.37 0.33 0.34 0.27 0.31 0.31 0.28 0.25 0.29 0.33 0.33 0.38 0.32 0.32 0.32 0.32 0.31 0.31 0.29 0.26 0.25 0.25 0.24 0.23 0.22 0.21
0.56 0.56 0.61 0.56 0.45 0.39 0.33 0.29 0.32 0.30 0.27 0.35 0.32 0.34 0.38 0.39 0.43 0.36 0.39 0.32 0.34 0.25 0.35 0.27 0.20 0.24 0.28 0.28 0.30 0.34 0.35 0.33 0.31 0.31 0.28 0.27 0.26 0.26 0.25 0.23 0.22 0.22 0.21 0.21
0.55 0.45 0.38 0.35 0.35 0.28 0.23 0.20 0.25 0.26 0.30 0.33 0.34 0.32 0.37 0.40 0.43 0.38 0.36 0.29 0.24 0.30 0.22 0.19 0.19 0.24 0.26 0.28 0.29 0.28 0.29 0.29 0.28 0.26 0.26 0.25 0.24 0.24 0.23 0.20 0.18 0.18 0.17 0.16
0.35 0.30 0.24 0.25 0.24 0.23 0.25 0.24 0.26 0.31 0.34 0.35 0.37 0.36 0.36 0.39 0.36 0.36 0.26 0.26 0.25 0.18 0.16 0.14 0.17 0.23 0.27 0.28 0.29 0.27 0.25 0.24 0.24 0.23 0.22 0.20 0.18 0.16 0.16 0.16 0.16 0.16 0.15 0.15
0.32 0.31 0.22 0.23 0.27 0.28 0.29 0.30 0.31 0.33 0.36 0.35 0.33 0.34 0.34 0.32 0.29 0.31 0.28 0.21 0.15 0.16 0.14 0.17 0.21 0.25 0.27 0.26 0.24 0.20 0.18 0.18 0.18 0.18 0.17 0.15 0.15 0.14 0.14 0.15 0.17 0.19 0.20 0.21
0.32 0.29 0.25 0.26 0.24 0.22 0.25 0.26 0.25 0.32 0.33 0.36 0.34 0.27 0.24 0.23 0.25 0.22 0.20 0.17 0.14 0.15 0.18 0.22 0.26 0.26 0.25 0.23 0.20 0.18 0.16 0.16 0.16 0.16 0.15 0.14 0.13 0.13 0.15 0.19 0.22 0.24 0.26 0.25
0.30 0.28 0.31 0.26 0.24 0.22 0.23 0.25 0.26 0.34 0.32 0.26 0.28 0.21 0.18 0.22 0.19 0.18 0.21 0.16 0.16 0.19 0.20 0.22 0.22 0.20 0.19 0.17 0.16 0.15 0.15 0.16 0.16 0.14 0.14 0.14 0.15 0.17 0.22 0.23 0.25 0.28 0.29 0.29